Location: Newark
(33.6333°S, 78.8500°W)
Time: 19:57:47
(UTC+00:00)

Courier 1B - Pass Details

Date: 27 September 2019
Orbit: 962 x 1209 km, 28.3° (Epoch: 19 October)

Event Time Altitude Azimuth Distance (km) Brightness Sun altitude
Rises 22:43:50 0° 275° (W) 4,108 13.6 5.7°
Reaches altitude 10° 22:46:46 10° 278° (W) 3,130 12.7 5.1°
Maximum altitude 22:54:22 57° 354° (N) 1,344 8.4 3.5°
Drops below altitude 10° 23:01:37 10° 71° (ENE) 2,983 9.5 2.0°
Sets 23:04:21 0° 75° (ENE) 3,904 10.0 1.4°
